Regional Weather Roundup
Issued by NWS

Home | Current Version | Previous Version | Text Only | Print | Product List | Glossary On
Versions: 1 2 3 4 5 6 7 8 9 10 11 12 13 14 15 16 17 18 19 20 21 22 23 24 25 26 27 28 29 30 31 32 33 34 35 36 37 38 39 40 41 42 43 44 45 46 47 48 49 50
932
ASUS43 KDMX 182101
RWRIA

WEATHER ROUNDUP FOR IOWA
NATIONAL WEATHER SERVICE DES MOINES IA
300 PM CST SAT NOV 18 2017

NOTE: "FAIR" INDICATES FEW OR NO CLOUDS BELOW 12,000 FEET WITH NO
SIGNIFICANT WEATHER AND/OR OBSTRUCTIONS TO VISIBILITY.

* - THESE STATIONS ARE NOT NWS STATIONS...THUS NOT UNDER NWS
QUALITY CONTROL.  THEY ALSO DO NOT REPORT WEATHER SUCH
AS PRECIPITATION OR FOG.

IAZ001>003-012>014-020>022-031>034-043>046-182200-
   NORTHWEST IOWA

CITY           SKY/WX    TMP DP  RH WIND       PRES   REMARKS
CARROLL *      PTSUNNY   43  30  61 NW25G32   29.95R
CHEROKEE *     SUNNY     39  24  53 NW20G31   29.99R WCI  30
DENISON *      SUNNY     43  27  52 NW20G31   30.00R
LE MARS *      SUNNY     39  23  52 NW18G30   30.03R WCI  30
ORANGE CITY *  SUNNY     39  23  52 NW21G31   30.00R WCI  29
SHELDON *      SUNNY     37  19  48 NW26G35   29.97R WCI  26
SIOUX CITY     SUNNY     41  25  53 NW20G35   30.03R
SPENCER        SUNNY     38  20  48 NW22G35   29.96R WCI  27
STORM LAKE *   MOSUNNY   39  25  56 NW26G36   29.96R WCI  28
$$

IAZ055>058-069>071-079>083-090>094-182200-
   SOUTHWEST IOWA

CITY           SKY/WX    TMP DP  RH WIND       PRES   REMARKS
ATLANTIC *     SUNNY     45  30  57 NW25G32   29.97R
AUDUBON *      SUNNY     43  30  61 NW21G26   29.97R
CLARINDA *     MOSUNNY   48  32  53 N16G31      N/A
COUNCIL BLFS * SUNNY     45  30  57 NW22G35   30.00R
CRESTON *      MOSUNNY   45  32  61 NW30G37   29.94R
HARLAN  *      SUNNY     43  30  61 NW22G32   30.01R
LAMONI         SUNNY     48  30  49 NW26G32   29.90R
RED OAK *      SUNNY     48  30  49 NW18G31   29.98S
SHENANDOAH *   SUNNY     48  32  53 NW23G30   30.00R
$$

IAZ047>049-059>061-072>074-084-182200-
   CENTRAL IOWA

CITY           SKY/WX    TMP DP  RH WIND       PRES   REMARKS
AMES           SUNNY     42  29  59 N24G36    29.90R
ANKENY *       SUNNY     43  28  56 NW16G29   29.90R
BOONE *        SUNNY     41  28  60 NW22G33   29.90R
CHARITON *     MOSUNNY   45  30  57 NW22G31   29.87R
DES MOINES     MOSUNNY   45  28  51 NW21G35   29.89R
GRINNELL*      SUNNY     42  31  63 NW26G35   29.84R
KNOXVILLE *    SUNNY     46  27  46 N20G29    29.85R
MARSHALLTOWN   SUNNY     41  30  65 NW28G33   29.84R
NEWTON *       SUNNY     43  30  61 NW23G30   29.86R
PELLA *        MOSUNNY   45  28  51 NW21G33   29.86R
PERRY *          N/A     42  29  59 NW23G30   29.93R
$$

IAZ004>006-015-016-023>025-035-036-182200-
   NORTH CENTRAL IOWA

CITY           SKY/WX    TMP DP  RH WIND       PRES   REMARKS
ALGONA *       CLOUDY    34  25  69 NW20G30   29.93R WCI  22
CLARION *      CLOUDY    36  28  75 NW26G36   29.91R WCI  23
ESTHERVILLE    SUNNY     33  21  61 NW25      29.94S WCI  20
FORT DODGE *   CLOUDY    38  25  59 NW14G26   29.93R WCI  30
MASON CITY     PTSUNNY   35  25  66 NW26G33   29.88R WCI  22
FOREST CITY *  CLOUDY    34  25  69 NW23G31   29.89R WCI  22
WEBSTER CITY * PTSUNNY   39  28  65 NW30G37   29.89R WCI  27
IOWA FALLS *     N/A     40  30  67 NW28G36   29.87R WCI  29
$$

IAZ007>011-017>019-026>030-037>042-050>054-066-182200-
   NORTHEAST IOWA

CITY           SKY/WX    TMP DP  RH WIND       PRES   REMARKS
CEDAR RAPIDS   SUNNY     43  32  65 NW25G35   29.76R
CHARLES CITY * MOSUNNY   39  30  70 NW23G29   29.82R WCI  29
CLINTON *      CLOUDY    40  35  83 NW18      29.68R WCI  31
DECORAH *      SUNNY     41  30  65 NW14G26   29.74R
DUBUQUE        PTSUNNY   40  32  73 NW18      29.70R WCI  31
MONTICELLO *   SUNNY     43  32  65 NW22      29.72R
OELWEIN *      SUNNY     41  36  81 NW26G33   29.77R
WATERLOO       SUNNY     42  28  57 NW25G32   29.79R
$$

IAZ064-065-067-068-078-182200-
   EAST CENTRAL IOWA

CITY           SKY/WX    TMP DP  RH WIND       PRES   REMARKS
DAVENPORT      PTSUNNY   40  34  79 NW16G26   29.71R WCI  31
IOWA CITY      MOSUNNY   45  33  63 NW17G33   29.77R
MT. PLEASANT * CLOUDY    42  33  70 NW16G24   29.76R
MUSCATINE *    CLOUDY    43  34  70 NW17G26   29.75R
QUAD CITIES    CLOUDY    42  34  73 NW22G30   29.69R
$$

IAZ062-063-075>077-085>089-095>099-182200-
   SOUTHEAST IOWA

CITY           SKY/WX    TMP DP  RH WIND       PRES   REMARKS
BURLINGTON     CLOUDY    41  36  82 NW16G30   29.73R
FAIRFIELD *    MOSUNNY   43  32  65 NW22G33   29.79R
FORT MADISON * PTSUNNY   43  37  81 NW17G30   29.76R
KEOKUK *       CLOUDY    43  36  75 NW20G26   29.75R
OSKALOOSA *      N/A     44  33  64 NW28      29.83R
OTTUMWA        CLOUDY    44  32  62 NW22G29   29.82R
WASHINGTON *   PTSUNNY   43  36  75 NW20G26   29.79R
$$

ABBREVIATIONS USED IN REMARKS
   TC - TEMPERATURES IN CELSIUS
  WCI - WIND CHILL INDEX
   HX - HEAT INDEX
  VSB - VISIBILITY
$$





USA.gov is the U.S. government's official web portal to all federal, state and local government web resources and services.